Wind_Speed
62 62 62 62 62 62 63 63 63 63 62 62 62 62 62 62 62 62 62 62 63 63 63 64 64 64 65 66 66 66 66 67 67 66 65 64 64 63 62 62 61 61 61
63 64 64 64 64 64 65 65 65 65 65 65 65 64 64 64 64 64 64 64 65 65 66 66 66 67 67 67 67 67 67 67 68 67 66 66 65 65 65 64 63 63 63
64 64 65 66 66 66 66 66 66 66 66 66 66 66 66 66 66 66 66 66 67 67 67 68 68 68 68 67 67 67 68 68 68 67 67 66 66 66 66 66 65 65 64
65 65 65 66 66 66 66 66 67 67 67 67 67 67 67 67 68 68 68 68 68 68 68 67 67 67 68 68 68 68 68 68 68 68 68 67 68 67 67 67 67 66 65
64 65 65 66 66 67 67 67 67 67 67 67 67 68 68 68 68 67 67 67 67 67 67 67 67 67 68 68 68 68 68 68 68 68 69 68 68 68 69 69 68 67 66
64 65 66 66 66 67 67 68 68 68 68 68 68 68 68 68 67 67 67 68 68 67 67 67 67 67 68 68 68 68 68 69 70 70 70 70 69 69 70 70 70 69 68
64 65 65 66 67 67 67 67 67 67 68 68 68 68 68 68 68 68 68 69 69 69 68 68 68 68 68 68 69 69 69 69 70 70 70 70 70 70 70 69 69 69 69
64 65 66 66 66 66 66 66 66 66 67 67 68 68 68 68 69 69 69 69 69 69 68 69 69 69 68 69 69 70 69 69 69 70 69 69 69 69 70 70 70 70 69
63 63 64 64 65 65 65 65 65 66 66 66 66 67 67 68 68 68 68 69 69 69 69 69 69 69 69 70 70 70 70 70 70 69 68 68 68 69 69 70 70 70 69
62 62 63 63 63 64 64 64 65 65 65 66 66 67 67 68 68 68 68 68 68 68 68 68 68 69 70 70 70 70 69 69 68 67 67 67 67 68 69 70 70 70 69
60 60 61 61 61 62 62 63 64 65 65 65 65 66 66 67 67 67 67 68 68 68 68 69 68 68 69 70 69 68 67 67 66 66 66 66 67 67 68 69 70 70 69
57 57 58 58 59 60 61 62 62 62 62 63 63 64 64 64 65 65 66 66 67 66 67 67 67 68 68 68 67 67 67 67 66 66 66 67 67 68 68 69 69 68 68
55 56 56 56 57 58 59 60 59 59 60 60 61 61 61 62 62 63 64 64 65 65 66 66 66 66 66 67 67 67 66 66 67 67 67 67 67 68 68 68 67 66 66
52 53 55 55 56 56 57 57 58 59 60 60 60 60 61 62 63 63 63 64 65 66 66 66 66 65 66 66 65 65 66 66 66 66 66 66 67 67 67 67 65 63 62
51 52 53 54 54 55 55 56 57 58 59 59 59 60 61 62 62 63 63 64 65 65 64 64 64 64 64 64 64 64 64 65 65 66 66 66 66 66 66 65 63 61 60
50 50 51 52 53 54 54 55 56 57 57 58 58 59 59 60 61 61 61 61 62 63 63 63 63 63 63 63 64 64 64 64 65 66 66 67 66 65 64 62 61 60 58
49 50 51 52 54 55 55 55 56 56 57 58 58 59 60 60 61 61 61 62 63 63 63 63 63 63 63 63 63 64 64 65 65 66 66 65 64 63 61 59 59 58 56
49 50 50 51 53 54 54 56 56 56 57 57 58 60 60 61 61 61 62 63 63 63 63 63 64 63 63 64 64 64 64 64 64 64 63 62 61 60 59 58 57 56 54
49 49 51 52 52 53 54 55 56 56 57 57 58 59 60 61 61 61 62 62 62 62 62 62 62 62 62 62 63 63 63 63 62 61 60 60 59 58 57 56 55 54 53
50 50 51 52 52 53 54 55 56 57 57 58 59 59 59 60 61 60 60 60 60 60 60 60 60 60 60 61 61 61 61 60 59 58 57 58 57 57 56 55 54 53 52
51 52 52 52 52 53 54 54 55 56 57 57 57 58 58 58 58 58 58 57 57 57 57 58 59 59 59 60 59 59 58 57 57 57 56 56 55 54 53 53 53 52 52
51 51 52 52 53 53 54 54 55 55 56 55 55 56 56 56 56 56 57 57 57 57 57 57 57 57 58 57 57 56 55 55 55 54 54 53 53 53 52 51 51 50 50
51 51 51 52 52 53 53 54 54 54 55 55 54 54 54 54 54 54 55 55 56 56 56 56 55 55 54 54 53 52 52 52 51 51 51 51 51 51 50 49 49 48 48
50 51 51 52 52 52 53 53 53 54 54 54 54 53 52 52 52 52 52 52 53 53 54 54 54 53 52 50 50 50 50 49 49 49 49 48 48 48 48 48 47 47 47
49 49 50 50 50 51 51 52 52 53 52 52 52 51 51 51 51 51 50 50 51 50 50 50 50 49 49 49 49 49 48 48 48 47 47 46 45 45 45 45 45 45 45
49 49 49 49 49 49 49 50 50 50 50 50 50 50 50 49 49 49 49 49 48 48 48 48 48 48 48 48 48 48 48 48 47 47 46 45 45 44 44 43 43 42 42
Wind_Direction
259 259 260 261 262 263 264 265 266 267 268 269 270 271 272 272 273 274 275 276 277 278 279 280 280 281 282 283 284 284 284 284 285 285 286 286 286 286 286 287 288 288 289
259 259 260 261 262 263 264 265 265 266 267 268 269 270 271 272 273 274 275 276 276 277 278 279 280 281 281 282 283 284 284 285 285 285 285 286 286 286 286 287 287 287 288
260 260 260 261 261 262 263 264 265 266 267 268 269 270 271 272 272 273 274 275 276 277 278 279 280 280 281 281 282 283 283 284 285 285 286 286 286 286 286 286 286 287 288
260 261 261 262 262 263 263 264 265 266 267 268 269 270 270 271 272 272 273 274 276 277 278 279 279 280 281 281 282 282 283 284 285 286 286 286 286 286 286 286 286 287 288
259 260 261 262 262 263 264 264 265 266 267 268 268 269 270 270 271 272 273 274 276 277 278 279 279 280 280 281 281 282 283 284 285 285 286 286 286 286 286 286 287 287 288
259 260 260 261 262 263 263 264 265 266 266 267 268 269 269 270 271 271 272 274 275 276 277 278 279 279 280 281 281 282 282 283 284 284 285 285 286 286 287 287 287 287 287
259 260 260 261 262 262 263 264 265 265 266 267 267 268 269 270 271 271 272 273 274 275 277 277 278 279 280 280 280 280 281 283 284 285 285 286 287 287 288 288 288 288 289
259 259 260 261 262 262 263 264 265 265 266 266 267 268 269 269 270 271 272 273 274 275 276 276 278 279 279 279 280 280 281 283 284 285 286 287 288 288 289 289 289 289 289
260 261 261 262 262 262 263 264 265 265 265 266 267 268 269 269 270 270 271 273 274 274 275 276 277 278 279 279 280 280 281 282 284 285 285 286 287 288 289 289 290 289 289
262 261 262 262 263 264 264 265 266 266 267 267 268 268 268 269 270 271 272 273 274 275 276 277 278 277 278 279 279 280 281 282 283 284 285 286 288 289 289 290 290 290 290
263 263 263 264 264 264 265 266 267 267 268 269 269 270 270 271 273 273 274 275 275 276 276 277 278 279 279 280 280 281 282 283 283 284 285 286 287 288 289 290 290 290 290
264 264 264 264 264 264 265 266 267 268 269 269 270 271 272 273 274 274 275 275 276 277 278 277 277 278 279 280 281 282 283 283 284 285 286 287 288 289 289 290 290 290 290
265 263 263 263 264 265 265 265 266 267 268 269 270 271 271 272 274 274 274 274 276 277 277 277 277 278 279 280 281 282 283 284 285 286 287 288 288 289 289 289 289 289 290
265 264 264 264 264 265 266 266 266 267 268 270 270 271 272 273 273 274 274 275 275 276 277 277 278 279 280 281 281 282 284 285 286 287 287 288 288 289 289 289 288 288 289
265 265 264 264 265 266 266 267 268 269 270 272 272 273 273 273 274 274 274 275 277 277 277 278 279 280 281 282 283 284 285 285 286 287 287 288 289 288 288 288 287 287 287
265 265 265 265 265 266 267 268 269 269 270 271 273 274 274 275 276 276 276 277 277 278 279 280 281 282 283 283 283 284 285 285 286 287 287 288 288 288 287 287 287 286 287
266 266 266 267 267 266 267 267 269 270 271 272 273 274 275 276 277 277 278 278 280 280 281 282 283 283 284 284 284 285 285 285 286 287 287 287 287 287 287 287 286 287 287
266 267 267 268 268 268 268 269 269 270 271 271 272 274 276 277 277 278 279 280 280 282 283 284 284 285 285 285 285 286 286 286 286 287 287 287 287 287 287 286 286 286 286
268 268 268 269 269 269 270 271 271 272 273 274 275 276 277 278 278 279 280 280 281 282 283 284 284 285 285 286 286 286 286 286 286 287 286 287 287 287 286 285 285 285 285
269 270 271 271 270 271 271 272 273 275 276 277 278 279 279 279 280 280 281 281 282 282 283 284 285 285 286 286 286 286 287 287 287 286 286 287 286 286 285 285 284 284 284
271 271 272 271 271 272 272 273 274 276 277 278 279 280 280 280 281 281 281 282 282 282 283 284 285 286 287 287 287 287 287 287 287 286 286 286 285 285 285 284 284 284 284
271 271 272 272 272 273 274 274 276 278 279 279 280 281 281 281 281 281 281 281 282 283 283 284 285 286 286 287 287 287 287 287 287 286 285 285 285 285 284 284 284 284 283
271 272 272 272 273 274 275 276 277 278 279 280 280 281 281 282 282 282 282 282 283 283 284 285 285 285 286 286 286 286 287 287 287 286 286 285 285 284 284 283 283 283 283
272 273 273 274 275 276 276 277 278 279 280 280 280 280 281 282 283 283 283 284 284 284 284 284 285 285 285 285 286 286 287 287 288 288 287 287 286 285 284 284 283 283 284
273 274 275 276 277 277 278 279 280 280 281 281 280 280 281 281 283 283 284 285 285 285 285 285 285 285 285 285 286 287 287 288 288 289 288 288 288 287 285 285 284 284 284
274 275 275 276 278 279 280 280 280 281 281 281 281 281 281 282 282 283 284 284 285 285 285 285 285 285 285 286 287 287 288 288 288 289 288 288 288 287 286 285 285 285 284
Height
5701 5703 5705 5707 5708 5710 5711 5712 5713 5713 5714 5714 5714 5714 5713 5713 5711 5710 5710 5709 5707 5706 5704 5702 5700 5697 5695 5693 5690 5687 5684 5681 5680 5681 5678 5675 5672 5669 5666 5663 5660 5657 5655
5685 5687 5689 5691 5692 5694 5695 5696 5697 5698 5698 5698 5698 5698 5698 5697 5696 5695 5694 5693 5692 5690 5688 5686 5684 5681 5679 5676 5674 5671 5668 5665 5663 5663 5662 5659 5656 5653 5650 5647 5645 5641 5639
5669 5671 5673 5674 5676 5677 5679 5680 5681 5681 5682 5682 5682 5682 5681 5681 5680 5679 5678 5677 5675 5674 5672 5670 5667 5665 5662 5660 5657 5654 5652 5649 5646 5644 5644 5642 5639 5635 5633 5630 5628 5625 5622
5653 5655 5657 5658 5660 5661 5662 5663 5664 5664 5665 5665 5665 5665 5664 5664 5663 5662 5661 5660 5658 5657 5655 5653 5650 5648 5646 5643 5640 5638 5635 5632 5630 5627 5625 5624 5621 5618 5614 5612 5610 5608 5605
5636 5638 5640 5641 5643 5644 5645 5646 5646 5647 5647 5647 5647 5647 5647 5646 5646 5645 5644 5643 5641 5640 5638 5636 5634 5631 5629 5626 5624 5621 5618 5615 5612 5610 5607 5605 5603 5599 5596 5592 5590 5589 5587
5619 5621 5622 5624 5625 5626 5627 5628 5629 5629 5630 5630 5630 5630 5629 5629 5629 5628 5627 5626 5624 5623 5621 5619 5617 5614 5611 5609 5606 5603 5601 5597 5595 5592 5589 5586 5584 5580 5576 5573 5570 5568 5567
5601 5603 5604 5606 5607 5608 5609 5610 5611 5612 5612 5612 5612 5612 5612 5611 5611 5610 5609 5608 5606 5605 5603 5601 5599 5597 5594 5591 5589 5586 5583 5579 5576 5573 5570 5567 5564 5561 5557 5554 5550 5547 5545
5583 5585 5586 5588 5589 5590 5591 5592 5593 5594 5594 5594 5594 5594 5594 5593 5593 5592 5591 5589 5588 5586 5585 5583 5581 5579 5576 5573 5570 5568 5565 5562 5558 5554 5551 5548 5544 5540 5536 5533 5530 5528 5526
5566 5567 5568 5569 5571 5572 5573 5575 5575 5576 5576 5576 5576 5576 5576 5575 5574 5573 5572 5571 5569 5568 5566 5564 5562 5560 5557 5554 5552 5549 5547 5543 5539 5536 5532 5529 5525 5521 5517 5513 5510 5507 5506
5548 5549 5550 5552 5553 5554 5556 5557 5557 5557 5558 5558 5558 5557 5557 5556 5555 5554 5553 5552 5550 5549 5547 5545 5543 5540 5538 5534 5532 5530 5527 5525 5521 5518 5514 5511 5507 5503 5498 5494 5490 5486 5483
5530 5531 5533 5534 5535 5537 5538 5539 5539 5539 5539 5539 5539 5539 5538 5538 5537 5536 5534 5533 5531 5530 5528 5526 5524 5521 5518 5516 5513 5510 5508 5505 5502 5499 5496 5493 5489 5485 5480 5475 5471 5466 5463
5513 5514 5516 5517 5518 5519 5520 5521 5521 5521 5521 5521 5521 5520 5520 5519 5518 5517 5516 5514 5512 5511 5509 5507 5505 5503 5500 5497 5494 5491 5488 5485 5483 5480 5478 5474 5471 5467 5462 5457 5452 5448 5443
5496 5497 5499 5500 5501 5502 5503 5503 5504 5504 5504 5503 5503 5503 5502 5501 5500 5499 5497 5495 5493 5492 5490 5488 5486 5483 5481 5478 5476 5473 5470 5466 5463 5461 5458 5455 5451 5447 5443 5439 5435 5430 5427
5479 5481 5482 5483 5484 5485 5485 5486 5486 5487 5486 5486 5485 5485 5484 5483 5482 5480 5479 5477 5475 5473 5471 5469 5467 5464 5462 5459 5457 5454 5450 5447 5444 5441 5439 5436 5432 5428 5425 5420 5417 5413 5410
5464 5464 5465 5466 5467 5468 5469 5469 5469 5469 5469 5469 5468 5467 5466 5466 5464 5462 5460 5459 5456 5454 5452 5450 5448 5446 5444 5441 5438 5435 5431 5428 5425 5422 5419 5416 5413 5410 5406 5402 5398 5394 5392
5449 5449 5450 5450 5451 5452 5452 5453 5452 5452 5452 5451 5450 5450 5448 5448 5446 5444 5442 5439 5437 5436 5433 5431 5429 5427 5425 5422 5419 5416 5413 5410 5407 5403 5400 5397 5394 5390 5387 5384 5380 5377 5374
5434 5434 5434 5435 5435 5435 5436 5436 5436 5436 5435 5434 5433 5432 5431 5429 5428 5426 5424 5421 5419 5417 5414 5412 5410 5407 5405 5402 5400 5397 5394 5391 5387 5384 5380 5377 5374 5371 5368 5365 5363 5360 5357
5419 5419 5419 5419 5419 5419 5419 5419 5418 5418 5418 5417 5416 5415 5413 5411 5409 5407 5405 5403 5400 5398 5395 5392 5390 5387 5385 5382 5380 5377 5374 5371 5368 5364 5361 5358 5355 5352 5350 5347 5345 5342 5340
5404 5404 5404 5404 5404 5403 5403 5402 5401 5400 5399 5399 5398 5397 5395 5392 5390 5388 5386 5383 5381 5379 5376 5373 5370 5368 5365 5362 5359 5357 5354 5351 5348 5345 5342 5339 5337 5334 5332 5330 5328 5325 5323
5389 5389 5389 5388 5388 5387 5387 5386 5384 5383 5382 5381 5380 5378 5376 5374 5372 5370 5367 5364 5362 5360 5357 5355 5352 5349 5346 5343 5340 5337 5335 5332 5329 5327 5324 5321 5319 5316 5314 5313 5311 5309 5307
5374 5373 5373 5372 5372 5371 5370 5369 5368 5366 5365 5363 5362 5360 5358 5356 5354 5351 5349 5347 5344 5342 5339 5337 5334 5331 5328 5325 5322 5319 5316 5314 5311 5309 5307 5304 5302 5300 5297 5295 5294 5292 5290
5358 5358 5357 5356 5356 5355 5354 5352 5351 5350 5348 5346 5345 5343 5340 5338 5336 5334 5332 5329 5327 5324 5321 5319 5316 5313 5311 5307 5305 5302 5299 5296 5294 5291 5289 5287 5285 5283 5281 5279 5277 5276 5274
5342 5341 5341 5340 5339 5338 5337 5336 5335 5333 5331 5329 5327 5325 5323 5321 5318 5316 5314 5311 5309 5306 5304 5301 5299 5296 5293 5290 5287 5284 5282 5280 5277 5275 5273 5270 5268 5267 5265 5263 5261 5260 5258
5326 5325 5325 5324 5323 5322 5321 5320 5318 5317 5315 5313 5311 5309 5306 5304 5302 5300 5297 5295 5292 5289 5287 5284 5281 5279 5276 5273 5271 5268 5266 5263 5261 5259 5256 5254 5253 5250 5249 5247 5246 5244 5243
5311 5310 5309 5308 5307 5306 5304 5303 5301 5300 5298 5296 5294 5292 5290 5288 5286 5283 5281 5278 5275 5273 5270 5267 5265 5262 5260 5257 5255 5253 5250 5248 5245 5243 5241 5239 5237 5235 5233 5232 5230 5229 5228
5296 5295 5294 5293 5291 5290 5288 5287 5285 5283 5281 5280 5278 5276 5274 5271 5269 5267 5265 5262 5259 5257 5254 5251 5249 5246 5244 5241 5239 5237 5235 5232 5230 5228 5226 5224 5222 5220 5218 5217 5216 5214 5213